Location: Palomar Mountain Lodge
(33.3110°N, 116.8495°W)
Time: 18:14:15
(UTC-08:00)

Sakura Rocket - Pass Details

Date: 13 December 2025
Orbit: 475 x 1690 km, 28.7° (Epoch: 12 January)

Event Time Altitude Azimuth Distance (km) Brightness Sun altitude
Rises 17:54:55 0° 261° (W) 3,269 8.6 -15.1°
Reaches altitude 10° 17:57:47 10° 255° (WSW) 2,151 7.2 -15.6°
Maximum altitude 18:02:25 46° 183° (S) 782 3.7 -16.6°
Enters shadow 18:04:32 23° 121° (ESE) 1,155 4.1 -17.0°
